Tracking 23764 objects as of 17-Oct-2021
HD Live streaming from Space Station
objects crossing your sky now

STARLINK-3102

Track STARLINK-3102 now!
10-day predictions
STARLINK-3102 is classified as:


NORAD ID: 49151
Int'l Code: 2021-082X
Perigee: 364.3 km
Apogee: 369.1 km
Inclination: 70.0 °
Period: 91.7 minutes
Semi major axis: 6737 km
RCS: Unknown
Launch date: September 14, 2021
Source: United States (US)
Launch site: AIR FORCE WESTERN TEST RANGE (AFWTR)
aabbcc
Your satellite tracking list
Your tracking list is empty




NASA's NSSDC Master Catalog

Two Line Element Set (TLE):
1 49151U 21082X   21290.50001157 -.00017531  00000-0 -14533-3 0  9994
2 49151  70.0008  33.0425 0003554 289.1790   3.3310 15.69757010  6554
Source of the keplerian elements: AFSPC